Location: Isola Pescaroli
(45.0500°N, 10.1667°E)
Time: 19:01:06
(UTC+00:00)

NOSS 3-3 (C) - Pass Details

Date: 03 March 2021
Orbit: 813 x 1399 km, 63.4° (Epoch: 15 April)

Event Time Altitude Azimuth Distance (km) Brightness Sun altitude
Rises 20:08:54 0° 322° (NW) 3,962 8.1 -31.7°
Reaches altitude 10° 20:11:28 10° 323° (NW) 3,079 7.3 -32.1°
Enters shadow 20:18:50 79° 32° (NNE) 1,301 4.4 -33.3°
